Weather History for Seattle Boeing, WA

Change the Weather History Date:

Monday, November 19, 2012

  Actual Average Record
Temperature  
Mean Temperature 52 °F -  
Max Temperature 55 °F 49 °F 60 °F (1965)
Min Temperature 48 °F 40 °F 25 °F (1950)
Degree Days  
Heating Degree Days 14    
Growing Degree Days 2 (Base 50)    
Moisture  
Dew Point 47 °F    
Average Humidity 84    
Maximum Humidity 93    
Minimum Humidity 69    
Precipitation  
Precipitation 2.49 in - - ()
Sea Level Pressure  
Sea Level Pressure 29.52 in    
Wind  
Wind Speed 10 mph (SSE)    
Max Wind Speed 18 mph    
Max Gust Speed 33 mph    
Visibility 7 miles    
Events Rain    
Averages and records for this station are not official NWS values.
T = Trace of Precipitation, MM = Missing Value Source: NWS Daily Summary

Daily Weather History Graph

Daily Weather History Graph

Search for Another Location

Airport:

Trip Planner

Search our weather history database for the weather conditions in past years. The results will help you decide how hot, cold, wet, or windy it might be!

Date:

Astronomy

Nov. 19, 2012 Rise Set
Actual Time 7:20 AM PST 4:28 PM PST
Civil Twilight 6:46 AM PST 5:02 PM PST
Nautical Twilight 6:09 AM PST 5:39 PM PST
Astronomical Twilight 5:32 AM PST 6:16 PM PST
Moon 12:16 PM PST 11:13 PM PST
Length of Visible Light 10h 15m
Length of Day
9h 07m
Waxing Crescent, 42% of the Moon is Illuminated
Nov 19
Waxing Crescent
Nov 20
First Quarter
Nov 28
Full
Dec 6
Last Quarter
Dec 13
New

Hourly Weather History & Observations

Time (PST) Temp. Dew Point Humidity Pressure Visibility Wind Dir Wind Speed Gust Speed Precip Events Conditions
12:53 AM 48.9 °F 42.1 °F 77% 29.56 in 10.0 mi SE 11.5 mph - 0.00 in   Overcast
1:53 AM 50.0 °F 42.1 °F 74% 29.55 in 10.0 mi SSE 12.7 mph - N/A   Mostly Cloudy
2:53 AM 52.0 °F 43.0 °F 71% 29.53 in 10.0 mi SSE 17.3 mph 33.4 mph 0.00 in Rain Light Rain
3:53 AM 51.1 °F 44.1 °F 77% 29.55 in 9.0 mi SSE 16.1 mph 26.5 mph 0.00 in Rain Light Rain
4:53 AM 48.9 °F 46.0 °F 90% 29.55 in 5.0 mi SE 9.2 mph - 0.17 in Rain Rain
5:16 AM 48.2 °F 46.4 °F 93% 29.55 in 5.0 mi Variable 3.5 mph - N/A Rain Rain
5:53 AM 48.9 °F 45.0 °F 86% 29.54 in 4.0 mi ESE 10.4 mph - 0.23 in Rain Heavy Rain
6:53 AM 48.0 °F 46.0 °F 93% 29.49 in 4.0 mi ESE 5.8 mph - 0.28 in Rain Heavy Rain
7:53 AM 48.9 °F 45.0 °F 86% 29.46 in 5.0 mi SSW 9.2 mph 20.7 mph 0.23 in Rain Rain
8:01 AM 48.2 °F 46.4 °F 93% 29.47 in 2.5 mi WNW 6.9 mph 17.3 mph 0.05 in Rain Heavy Rain
8:53 AM 50.0 °F 48.0 °F 93% 29.45 in 2.5 mi Calm Calm - 0.31 in Rain Rain
9:53 AM 51.1 °F 48.0 °F 89% 29.41 in 4.0 mi East 10.4 mph - 0.19 in Rain Rain
10:10 AM 51.8 °F 48.2 °F 88% 29.39 in 7.0 mi ESE 10.4 mph - 0.02 in Rain Light Rain
10:53 AM 55.0 °F 50.0 °F 83% 29.37 in 6.0 mi SSE 16.1 mph 21.9 mph 0.09 in Rain Rain
11:53 AM 55.9 °F 50.0 °F 80% 29.37 in 5.0 mi South 11.5 mph 19.6 mph 0.12 in Rain Rain
12:53 PM 55.9 °F 51.1 °F 84% 29.37 in 8.0 mi SSE 18.4 mph 26.5 mph 0.14 in Rain Light Rain
1:53 PM 55.0 °F 50.0 °F 83% 29.42 in 6.0 mi SSE 16.1 mph 26.5 mph 0.16 in Rain Light Rain
2:53 PM 55.9 °F 46.0 °F 69% 29.44 in 10.0 mi South 12.7 mph 27.6 mph 0.00 in Rain Light Rain
3:53 PM 55.0 °F 48.0 °F 77% 29.45 in 6.0 mi SSE 12.7 mph 18.4 mph 0.06 in Rain Rain
4:53 PM 53.1 °F 48.9 °F 86% 29.46 in 5.0 mi SE 4.6 mph - 0.10 in Rain Rain
5:53 PM 54.0 °F 50.0 °F 86% 29.51 in 10.0 mi South 12.7 mph 19.6 mph 0.36 in Rain Light Rain
6:53 PM 55.0 °F 48.0 °F 77% 29.56 in 10.0 mi South 11.5 mph 21.9 mph 0.00 in   Overcast
7:53 PM 52.0 °F 46.0 °F 80% 29.59 in 10.0 mi South 9.2 mph 16.1 mph N/A   Partly Cloudy
8:53 PM 51.1 °F 45.0 °F 80% 29.62 in 10.0 mi South 8.1 mph - N/A   Partly Cloudy
9:53 PM 50.0 °F 44.1 °F 80% 29.65 in 10.0 mi SSE 8.1 mph - N/A   Partly Cloudy
10:53 PM 48.0 °F 45.0 °F 89% 29.67 in 10.0 mi SE 4.6 mph - N/A   Mostly Cloudy
11:35 PM 48.2 °F 46.4 °F 93% 29.69 in 4.0 mi Calm Calm - 0.05 in Rain Rain
11:44 PM 48.2 °F 46.4 °F 93% 29.69 in 10.0 mi ESE 3.5 mph - 0.05 in   Overcast
11:53 PM 48.9 °F 46.9 °F 93% 29.69 in 10.0 mi Calm Calm - 0.05 in Rain Light Rain